Regional Weather Roundup
Issued by NWS Goodland, KS

Home | Current Version | Previous Version | Graphics & Text | Print | Product List | Glossary On
Versions: 1 2 3 4 5 6 7 8 9 10 11 12 13 14 15 16 17 18 19 20 21 22 23 24 25 26 27 28 29 30 31 32 33 34 35 36 37 38 39 40 41 42 43 44 45 46 47 48 49 50
000
ASUS43 KGLD 250359
RWRGLD

GOODLAND FORECAST AREA HOURLY WEATHER ROUNDUP
NATIONAL WEATHER SERVICE GOODLAND KS
1000 PM MDT SUN MAY 24 2015

...OFFICIAL OBSERVATIONS...

CITY           SKY/WX    TMP DP  RH WIND       PRES   REMARKS
GOODLAND KS    LGT RAIN  52  50  93 NE7       29.82S
HILL CITY KS   CLOUDY    63  59  87 S9        29.83R
IMPERIAL NEB   RAIN      52  49  89 NE7       29.82F
MCCOOK NEB     CLOUDY    54  52  93 NW7       29.84R
AKRON CO       CLOUDY    47  46  97 NW7       29.84R
BURLINGTON CO  CLOUDY    51  48  89 NE8       29.81S
LIMON CO       CLOUDY    47  44  90 N7        29.87R
$$

...UNOFFICIAL OBSERVATIONS...

CITY           SKY/WX    TMP DP  RH WIND       PRES   REMARKS
COLBY KS       CLOUDY    54  54 100 SW9       29.85R
GOVE KS          N/A     56  32  40 MISG        N/A
LENORA KS        N/A     62  32  32 MISG        N/A
NORTON KS      CLOUDY    61  55  82 SE3       29.81R
SHARON SPRINGS   N/A     54  52  92 MISG        N/A
KIT CARSON CO    N/A     51  47  88 MISG        N/A
$$



USA.gov is the U.S. government's official web portal to all federal, state and local government web resources and services.